Weather in Khabary

Russia / Altai Krai     53°37′25″N   79°32′23″E
temp.,
°C
wind,
m/s
gust,
m/s
humid.,
%
clouds,
%
prec.,
mm/h
press.,
hPa
HPBL,
m
29 june, wed
wed2901:00+14se47685 0.0 1005103
04:00+14se512585 0.0 1003182
07:00+15se5125962 0.0 1001248
10:00+21sse710435 0.0 997624
13:00+26s793594 0.0 9941021
16:00+30ssw61327100 0.0 9903112
19:00+22w1015575 0.0 992997
22:00+13w812690 0.4 998853
30 june, thu
thu3001:00+9wsw410755 0.4 998246
04:00+9sw512700 0.0 999438
07:00+9wsw814691 0.0 10001057
10:00+12wsw911520 0.0 10011142
13:00+16wsw810445 0.0 10011610
16:00+19wsw89395 0.0 10012046
19:00+18w794216 0.0 10022084
22:00+13wnw510581 0.0 1004444
1 july, fri
fri101:00+10wsw48673 0.0 1004139
04:00+9wsw4117712 0.0 1005213
07:00+10wsw511775 0.0 1006462
10:00+15w79573 0.0 10061086
13:00+17wnw795374 0.0 10071513
16:00+20wnw71041100 0.0 10072376
19:00+17wnw81155100 0.0 10081047
22:00+13nw41074100 0.0 1009482
2 july, sat
sat201:00+13w377596 0.0 1010339
04:00+11w358038 0.0 1010143
07:00+11wsw368334 0.0 1010188
10:00+15w576665 0.0 1010909
13:00+17wnw565854 0.2 1011910
16:00+20w5642100 0.2 10092189
19:00+20w4643100 0.2 10091834
22:00+15nnw226694 0.0 100917
3 july, sun
sun301:00+13nw117525 0.0 100911
04:00+11w12825 0.0 100910
07:00+13w11753 0.0 100843
10:00+19wsw23525 0.0 1007820
13:00+22w3538100 0.0 10062342
16:00+22wsw2438100 0.0 10041955
19:00+22ene123699 0.0 10021915
22:00+18ene4651100 0.0 1000103